When you browse on this site, cookies collect data to enhance your experience and personalize the content and advertising you see.
Visit our Privacy Policy to learn more. By continuing to use the site, you agree to this use of cookies and data.
  • Em Portugal
  • Lista de países
  • Para 7 dias
  • Temperatura da água
  • Mapas de satélite
  • Mapa do tempo
  • Widgets de tempo
  • user-avatar
    Iniciar Sessão

    Previsão horária em Sudzioka

    Hoje, 11 Dezembro, Terça-feira

    Tempo Temperatura Precipitação Vento Pressão Humidade
    00:00 +5°C° 0 mm 2 m/s 769 mmHg 58%
    01:00 +4°C° 0 mm 3 m/s 769 mmHg 58%
    02:00 +4°C° 0 mm 3 m/s 769 mmHg 58%
    03:00 +4°C° 0 mm 3 m/s 769 mmHg 59%
    04:00 +4°C° 0 mm 3 m/s 769 mmHg 60%
    05:00 +4°C° 0 mm 3 m/s 769 mmHg 61%
    06:00 +4°C° 0 mm 3 m/s 769 mmHg 62%
    07:00 +5°C° 0 mm 3 m/s 769 mmHg 57%
    08:00 +8°C° 0 mm 3 m/s 769 mmHg 52%
    09:00 +10°C° 0 mm 3 m/s 769 mmHg 47%
    10:00 +11°C° 0 mm 3 m/s 769 mmHg 46%
    11:00 +12°C° 0 mm 3 m/s 768 mmHg 44%
    12:00 +14°C° 0 mm 3 m/s 768 mmHg 42%
    13:00 +13°C° 0 mm 3 m/s 767 mmHg 47%
    14:00 +12°C° 0 mm 4 m/s 767 mmHg 52%
    15:00 +12°C° 0 mm 4 m/s 766 mmHg 57%
    16:00 +11°C° 0.2 mm 4 m/s 766 mmHg 64%
    17:00 +10°C° 0.2 mm 4 m/s 766 mmHg 71%
    18:00 +8°C° 0.2 mm 4 m/s 766 mmHg 77%
    19:00 +8°C° 1.6 mm 4 m/s 765 mmHg 81%
    20:00 +8°C° 1.6 mm 4 m/s 765 mmHg 85%
    21:00 +8°C° 1.6 mm 5 m/s 764 mmHg 89%
    22:00 +9°C° 1.9 mm 5 m/s 763 mmHg 89%
    23:00 +9°C° 1.9 mm 5 m/s 762 mmHg 89%

    Amanhã, 12 Dezembro, Quarta-feira

    Tempo Temperatura Precipitação Vento Pressão Humidade
    00:00 +9°C° 1.9 mm 5 m/s 761 mmHg 89%
    01:00 +11°C° 0.9 mm 4 m/s 760 mmHg 89%
    02:00 +11°C° 0.9 mm 4 m/s 759 mmHg 89%
    03:00 +11°C° 0.9 mm 3 m/s 759 mmHg 89%
    04:00 +12°C° 0.8 mm 2 m/s 758 mmHg 90%
    05:00 +12°C° 0.8 mm 2 m/s 758 mmHg 90%
    06:00 +12°C° 0.8 mm 2 m/s 758 mmHg 90%
    07:00 +13°C° 0.6 mm 2 m/s 758 mmHg 90%
    08:00 +13°C° 0.6 mm 2 m/s 758 mmHg 90%
    09:00 +13°C° 0.6 mm 2 m/s 757 mmHg 90%
    10:00 +14°C° 0.1 mm 2 m/s 757 mmHg 84%
    11:00 +14°C° 0.1 mm 3 m/s 756 mmHg 78%
    12:00 +17°C° 0.1 mm 3 m/s 756 mmHg 72%
    13:00 +15°C° 0 mm 4 m/s 756 mmHg 70%
    14:00 +15°C° 0 mm 4 m/s 756 mmHg 67%
    15:00 +15°C° 0 mm 5 m/s 756 mmHg 65%
    16:00 +13°C° 0 mm 5 m/s 757 mmHg 67%
    17:00 +12°C° 0 mm 5 m/s 757 mmHg 69%
    18:00 +10°C° 0 mm 4 m/s 758 mmHg 71%
    19:00 +8°C° 0 mm 4 m/s 759 mmHg 71%
    20:00 +8°C° 0 mm 4 m/s 759 mmHg 71%
    21:00 +7°C° 0 mm 4 m/s 759 mmHg 71%
    22:00 +7°C° 0 mm 4 m/s 760 mmHg 69%
    23:00 +6°C° 0 mm 4 m/s 760 mmHg 67%

    Depois de amanhã, 13 Dezembro, Quinta-feira

    Tempo Temperatura Precipitação Vento Pressão Humidade
    00:00 +6°C° 0 mm 4 m/s 761 mmHg 65%
    01:00 +5°C° 0 mm 3 m/s 761 mmHg 64%
    02:00 +5°C° 0 mm 3 m/s 762 mmHg 62%
    03:00 +5°C° 0 mm 3 m/s 762 mmHg 61%
    04:00 +5°C° 0 mm 3 m/s 762 mmHg 60%
    05:00 +4°C° 0 mm 3 m/s 763 mmHg 58%
    06:00 +4°C° 0 mm 3 m/s 763 mmHg 57%
    07:00 +7°C° 0 mm 3 m/s 763 mmHg 54%
    08:00 +8°C° 0 mm 3 m/s 764 mmHg 50%
    09:00 +10°C° 0 mm 3 m/s 764 mmHg 47%
    10:00 +11°C° 0 mm 3 m/s 764 mmHg 45%
    11:00 +12°C° 0 mm 3 m/s 763 mmHg 43%
    12:00 +13°C° 0 mm 3 m/s 763 mmHg 42%
    13:00 +12°C° 0 mm 4 m/s 763 mmHg 44%
    14:00 +12°C° 0 mm 5 m/s 762 mmHg 46%
    15:00 +12°C° 0 mm 5 m/s 762 mmHg 48%
    16:00 +9°C° 0 mm 5 m/s 762 mmHg 52%
    17:00 +8°C° 0 mm 5 m/s 763 mmHg 56%
    18:00 +5°C° 0 mm 6 m/s 763 mmHg 61%
    19:00 +5°C° 0 mm 6 m/s 763 mmHg 63%
    20:00 +5°C° 0 mm 6 m/s 763 mmHg 64%
    21:00 +5°C° 0 mm 6 m/s 764 mmHg 66%
    22:00 +4°C° 0 mm 6 m/s 763 mmHg 67%
    23:00 +4°C° 0 mm 6 m/s 763 mmHg 67%

    14 Dezembro, Sexta-feira

    Tempo Temperatura Precipitação Vento Pressão Humidade
    00:00 +4°C° 0 mm 7 m/s 763 mmHg 68%
    01:00 +4°C° 0 mm 6 m/s 763 mmHg 68%
    02:00 +3°C° 0 mm 6 m/s 763 mmHg 69%
    03:00 +3°C° 0 mm 6 m/s 763 mmHg 69%
    04:00 +3°C° 0 mm 5 m/s 763 mmHg 70%
    05:00 +2°C° 0 mm 5 m/s 764 mmHg 70%
    06:00 +2°C° 0 mm 5 m/s 764 mmHg 71%
    07:00 +5°C° 0 mm 4 m/s 764 mmHg 64%
    08:00 +6°C° 0 mm 4 m/s 765 mmHg 57%
    09:00 +9°C° 0 mm 3 m/s 765 mmHg 50%
    10:00 +10°C° 0 mm 3 m/s 765 mmHg 45%
    11:00 +11°C° 0 mm 3 m/s 765 mmHg 40%
    12:00 +12°C° 0 mm 3 m/s 765 mmHg 35%
    13:00 +11°C° 0 mm 3 m/s 765 mmHg 37%
    14:00 +11°C° 0 mm 4 m/s 765 mmHg 39%
    15:00 +11°C° 0 mm 4 m/s 765 mmHg 41%
    16:00 +9°C° 0 mm 3 m/s 765 mmHg 46%
    17:00 +7°C° 0 mm 3 m/s 766 mmHg 52%
    18:00 +5°C° 0 mm 3 m/s 767 mmHg 57%
    19:00 +4°C° 0 mm 3 m/s 767 mmHg 58%
    20:00 +4°C° 0 mm 3 m/s 767 mmHg 60%
    21:00 +4°C° 0 mm 3 m/s 768 mmHg 61%
    22:00 +3°C° 0 mm 3 m/s 768 mmHg 61%
    23:00 +3°C° 0 mm 3 m/s 768 mmHg 61%

    15 Dezembro, Sábado

    Tempo Temperatura Precipitação Vento Pressão Humidade
    00:00 +3°C° 0 mm 3 m/s 768 mmHg 61%
    01:00 +3°C° 0 mm 3 m/s 768 mmHg 59%
    02:00 +2°C° 0 mm 3 m/s 768 mmHg 58%
    03:00 +3°C° 0 mm 2 m/s 768 mmHg 57%
    04:00 +3°C° 0 mm 2 m/s 768 mmHg 55%
    05:00 +3°C° 0 mm 2 m/s 768 mmHg 54%
    06:00 +3°C° 0 mm 2 m/s 768 mmHg 52%
    07:00 +5°C° 0 mm 2 m/s 768 mmHg 48%
    08:00 +6°C° 0 mm 2 m/s 769 mmHg 44%
    09:00 +8°C° 0 mm 2 m/s 769 mmHg 39%
    10:00 +9°C° 0 mm 2 m/s 768 mmHg 38%
    11:00 +10°C° 0 mm 2 m/s 768 mmHg 37%
    12:00 +13°C° 0 mm 2 m/s 767 mmHg 36%
    13:00 +12°C° 0 mm 2 m/s 767 mmHg 38%
    14:00 +12°C° 0 mm 2 m/s 767 mmHg 40%
    15:00 +12°C° 0 mm 2 m/s 767 mmHg 43%
    16:00 +9°C° 0 mm 2 m/s 767 mmHg 49%
    17:00 +7°C° 0 mm 2 m/s 767 mmHg 55%
    18:00 +7°C° 0 mm 1 m/s 768 mmHg 61%
    19:00 +7°C° 0 mm 1 m/s 768 mmHg 63%
    20:00 +5°C° 0 mm 2 m/s 768 mmHg 64%
    21:00 +5°C° 0 mm 2 m/s 768 mmHg 66%
    22:00 +5°C° 0 mm 2 m/s 768 mmHg 68%
    23:00 +5°C° 0 mm 2 m/s 768 mmHg 69%

    16 Dezembro, Domingo

    Tempo Temperatura Precipitação Vento Pressão Humidade
    00:00 +5°C° 0 mm 2 m/s 768 mmHg 71%
    01:00 +5°C° 0 mm 2 m/s 768 mmHg 72%
    02:00 +5°C° 0 mm 2 m/s 767 mmHg 73%
    03:00 +5°C° 0 mm 2 m/s 767 mmHg 74%
    04:00 +5°C° 0 mm 2 m/s 767 mmHg 73%
    05:00 +5°C° 0 mm 2 m/s 767 mmHg 73%
    06:00 +5°C° 0 mm 2 m/s 767 mmHg 73%
    07:00 +7°C° 0 mm 2 m/s 766 mmHg 66%
    08:00 +8°C° 0 mm 2 m/s 766 mmHg 59%
    09:00 +11°C° 0 mm 1 m/s 766 mmHg 52%
    10:00 +12°C° 0 mm 2 m/s 765 mmHg 48%
    11:00 +14°C° 0 mm 2 m/s 764 mmHg 45%
    12:00 +15°C° 0 mm 2 m/s 763 mmHg 41%
    13:00 +15°C° 0 mm 2 m/s 763 mmHg 42%
    14:00 +15°C° 0 mm 2 m/s 762 mmHg 43%
    15:00 +15°C° 0 mm 2 m/s 762 mmHg 44%
    16:00 +13°C° 0 mm 2 m/s 762 mmHg 49%
    17:00 +10°C° 0 mm 2 m/s 762 mmHg 53%
    18:00 +8°C° 0 mm 2 m/s 762 mmHg 57%
    19:00 +8°C° 0 mm 3 m/s 762 mmHg 57%
    20:00 +8°C° 0 mm 3 m/s 762 mmHg 56%
    21:00 +8°C° 0 mm 3 m/s 762 mmHg 56%
    22:00 +8°C° 0 mm 3 m/s 761 mmHg 56%
    23:00 +8°C° 0 mm 3 m/s 761 mmHg 56%
    Mostrar mais